Theta_e
317 321 323 321 318 314 316 316 318 316 316 317 319 319 318 317 316 316 313 316 317 318 317 317 318 315 312 312 313 329 340 343 343 342 341 340 340 339 340 339 337 336 335 336
320 322 318 317 316 317 317 319 321 320 317 317 319 319 317 317 315 314 316 316 316 316 317 319 321 323 322 316 311 313 332 341 342 342 340 339 339 338 338 338 337 336 337 337
318 317 318 319 319 320 320 322 321 320 317 316 316 318 316 315 313 316 314 313 313 313 315 316 319 323 324 322 317 311 313 335 341 341 340 339 337 337 337 339 339 338 338 338
316 314 316 317 319 319 321 317 318 318 319 321 315 321 317 315 315 315 312 311 311 312 313 314 317 320 323 323 322 313 316 325 338 340 339 338 338 336 336 338 337 337 337 337
315 311 310 315 314 314 317 309 314 316 318 317 317 319 318 314 317 313 308 307 307 309 312 313 315 318 322 323 322 321 325 331 337 338 338 337 337 336 336 336 336 336 335 335
310 305 304 306 304 306 306 310 315 315 316 319 317 318 317 317 315 308 304 304 305 306 309 312 313 315 317 321 322 326 330 335 338 336 337 337 335 334 333 333 334 333 332 331
306 304 301 300 304 304 308 313 314 316 321 318 315 317 316 314 307 304 303 303 304 304 306 309 312 314 314 317 321 322 329 334 336 336 335 335 333 334 334 334 333 332 331 330
307 310 301 299 301 303 304 311 318 318 317 317 309 321 319 308 304 300 300 300 301 303 305 307 308 312 313 313 321 321 324 328 332 334 335 333 331 330 331 330 331 331 330 329
304 304 299 299 298 300 303 303 300 304 307 309 311 311 313 305 301 300 299 299 299 301 303 306 307 309 311 312 315 321 321 326 328 331 331 330 330 330 330 330 328 329 329 326
300 302 299 300 299 298 298 299 302 307 311 313 309 309 311 304 301 299 299 298 298 299 300 303 306 309 310 311 313 321 321 322 323 325 327 327 327 330 328 327 327 325 326 326
298 298 298 298 298 298 298 300 301 303 307 309 305 303 304 302 299 298 297 296 296 298 299 300 303 307 310 311 313 318 321 322 323 323 324 324 326 326 325 324 325 326 327 327
298 299 298 298 297 297 299 302 303 304 303 303 302 303 302 297 297 296 296 297 297 297 297 298 301 306 309 310 312 314 322 322 322 323 324 324 325 324 324 324 325 326 326 324
299 300 303 301 297 298 299 298 298 299 299 300 301 300 300 297 296 297 296 297 297 297 298 298 299 304 308 310 312 313 320 322 323 322 322 324 324 325 324 324 323 323 321 322
300 300 300 304 298 298 299 300 298 297 298 296 298 296 296 296 296 296 297 297 297 298 298 298 299 302 308 309 312 312 317 322 320 320 321 321 322 323 321 321 320 320 320 320
300 299 298 298 297 297 297 297 297 296 295 296 295 295 296 297 296 297 299 299 300 300 299 299 299 301 307 309 312 312 315 322 320 318 319 318 319 319 318 318 318 318 318 317
295 299 298 296 294 295 297 297 298 298 297 296 296 296 296 300 302 302 303 304 304 303 299 300 298 300 306 309 311 312 314 319 320 318 318 317 317 317 317 317 317 317 316 316
295 295 295 294 294 296 297 296 296 296 295 295 297 299 298 302 303 303 303 303 304 304 302 301 300 301 305 310 311 311 312 318 318 318 317 317 316 316 316 316 315 316 316 316
294 294 294 295 295 295 294 294 295 296 295 295 296 297 302 302 302 302 303 302 304 305 303 302 300 302 309 309 310 311 312 317 317 316 316 316 315 315 315 315 315 315 315 315
293 295 293 296 296 295 295 298 298 299 300 299 300 301 300 301 301 301 301 301 303 305 301 301 304 309 309 310 311 311 312 315 316 315 315 315 315 315 315 314 314 314 314 313
292 292 294 291 295 293 294 296 299 299 299 301 302 299 300 301 300 301 301 301 301 302 306 307 307 308 308 307 310 312 312 314 316 315 314 315 315 315 314 313 312 311 312 310
294 291 292 295 293 294 294 295 297 299 297 298 298 299 300 299 299 300 300 302 301 299 304 306 304 303 304 305 309 310 312 314 315 314 314 314 314 314 312 311 310 309 308 307
295 292 291 289 291 294 294 297 298 297 296 296 298 299 299 298 298 298 299 300 299 298 298 303 303 301 302 303 306 308 311 315 314 314 313 313 313 312 311 309 307 307 306 305
296 294 293 292 294 292 294 296 295 296 296 296 298 297 296 296 298 296 298 297 296 297 298 302 302 301 302 302 302 307 310 314 313 313 312 312 312 310 309 308 306 305 305 304
292 290 292 293 291 292 292 293 294 294 295 296 295 295 296 297 297 296 296 296 296 297 298 302 302 301 302 302 303 308 313 313 312 311 310 310 309 309 308 307 307 306 305 304
290 291 291 292 291 291 292 292 294 294 294 294 294 295 297 297 297 295 295 296 296 297 299 300 301 301 302 311 315 314 312 312 311 310 309 309 308 307 307 307 307 306 305 306
289 290 292 291 290 290 291 293 293 293 294 294 293 297 298 297 297 294 295 295 296 296 298 299 299 301 304 305 312 311 312 311 311 309 309 308 307 306 305 305 304 304 307 308
Wind_Speed
2 1 4 9 6 2 1 3 10 7 11 7 12 15 12 14 14 10 10 13 14 15 16 22 25 24 22 20 22 24 26 29 31 29 27 21 25 25 23 22 19 19 17 15
2 5 7 5 4 5 5 6 11 9 8 4 10 14 13 13 2 10 12 14 17 19 20 22 27 28 25 22 20 26 29 31 35 35 36 22 30 27 26 24 22 19 18 18
7 4 3 4 4 6 6 8 5 11 5 5 5 6 2 1 10 10 13 12 14 17 19 20 23 28 29 26 21 21 29 30 34 33 28 23 24 21 22 23 23 22 21 20
4 3 4 4 5 7 6 8 13 8 3 5 2 8 6 2 6 13 16 16 16 19 17 17 21 26 31 33 29 18 19 25 27 30 30 30 27 19 24 29 26 23 20 19
4 1 1 3 4 4 6 4 4 4 4 3 4 4 4 1 4 12 14 15 16 16 17 19 20 27 28 32 30 18 8 16 22 29 30 30 26 23 26 26 25 23 19 17
4 1 1 2 3 3 3 3 1 1 2 8 12 9 10 2 3 7 14 15 16 17 17 18 25 28 33 33 33 25 5 10 18 23 24 31 31 31 25 25 24 22 21 18
1 2 2 0 2 1 2 2 3 5 4 8 1 6 5 6 5 5 10 14 17 17 18 18 22 26 30 36 32 24 13 2 11 19 21 25 28 36 35 34 30 25 22 20
4 10 5 1 1 1 2 4 5 7 5 5 4 6 3 7 4 6 7 11 16 19 18 17 16 23 26 33 30 24 13 5 6 15 21 21 26 22 22 20 28 26 24 20
5 5 0 1 1 1 2 3 2 2 2 4 5 2 6 3 5 9 13 15 17 18 19 18 21 23 28 31 33 22 14 6 2 11 17 19 23 22 26 14 12 20 19 17
2 4 1 1 0 2 2 3 2 3 4 5 5 4 4 1 8 12 16 18 18 17 16 18 16 21 26 30 30 27 16 8 4 9 14 17 20 19 15 16 7 15 17 18
2 2 1 1 1 1 0 2 5 2 3 3 4 5 3 2 5 11 13 16 17 17 16 15 17 18 17 18 24 24 14 7 9 13 17 22 22 17 10 13 17 19 18 18
2 2 1 1 2 4 2 1 3 5 5 1 1 11 3 8 12 19 20 17 15 16 15 16 18 20 15 17 17 20 14 4 5 11 16 17 20 17 18 17 23 21 18 16
4 2 2 4 0 1 2 1 1 4 2 4 3 6 2 16 21 20 20 19 17 18 18 16 15 16 15 17 18 16 12 7 5 9 13 19 20 20 21 24 22 19 16 16
8 2 5 5 2 3 2 4 2 3 2 2 7 17 16 18 19 20 21 20 18 18 17 15 14 14 16 15 16 15 15 8 11 13 14 17 22 23 22 21 21 18 16 16
3 6 6 3 2 2 3 5 8 6 4 6 5 5 16 17 17 18 19 20 21 21 18 15 13 11 16 14 13 15 18 13 15 12 14 16 22 25 23 20 17 15 12 11
3 2 1 3 2 2 8 10 10 11 9 10 15 17 11 11 16 17 17 18 19 19 18 16 14 13 15 14 13 12 14 15 19 16 17 20 22 22 19 17 14 14 13 12
4 5 3 2 2 4 6 8 14 4 4 4 5 8 9 17 17 18 17 16 20 18 18 15 13 12 16 14 13 16 15 9 21 22 23 22 20 18 18 16 16 16 15 15
5 4 2 1 1 3 1 1 5 6 5 10 7 9 10 14 15 15 11 15 19 16 13 12 12 15 10 13 14 14 12 9 17 23 23 24 22 20 18 17 18 18 18 18
1 4 3 2 2 5 1 1 3 4 4 3 5 8 12 12 11 8 13 11 19 20 8 9 12 11 13 16 14 13 9 10 18 19 25 24 24 22 19 19 20 21 24 26
7 6 3 2 2 4 3 3 2 3 5 6 6 7 10 10 10 8 14 19 8 10 19 11 14 13 17 19 13 12 11 11 19 22 24 26 24 23 21 23 24 26 30 30
3 2 3 2 2 6 7 6 2 2 3 4 3 7 8 7 5 13 16 19 21 16 12 5 10 17 21 21 15 13 13 15 23 24 28 26 24 23 25 27 29 30 32 32
7 7 3 2 1 5 6 2 5 4 2 2 5 4 8 10 12 10 12 11 11 11 12 11 14 19 26 21 16 16 15 18 28 30 28 27 26 26 29 31 29 32 35 34
4 6 5 8 5 3 4 4 4 3 3 3 4 8 6 8 8 11 9 8 9 12 10 11 15 26 32 23 19 19 17 29 30 31 29 28 28 29 32 32 30 28 30 27
3 3 2 3 3 8 7 5 5 4 5 3 5 7 5 6 10 9 8 7 6 10 8 11 14 27 33 32 25 21 26 31 32 30 28 29 29 27 28 28 30 28 27 25
2 6 5 3 6 5 8 7 7 4 4 4 5 4 6 5 10 6 7 7 8 7 6 12 14 27 31 25 14 32 36 32 31 31 28 28 28 28 25 23 27 27 23 34
5 6 5 5 6 3 4 2 1 4 4 5 3 6 8 5 6 6 8 10 11 9 9 16 19 27 32 36 6 27 33 34 32 29 27 27 27 27 29 28 24 19 29 32
Wind_Direction
23 137 211 221 204 142 92 263 276 257 264 287 267 277 273 282 295 324 18 1 351 348 333 343 346 343 332 306 261 235 219 216 211 205 205 208 205 210 210 206 208 203 203 202
11 248 240 209 186 220 227 266 273 284 268 213 271 279 271 264 314 67 22 5 356 349 351 353 351 349 342 321 285 253 227 213 210 208 210 201 200 204 209 202 202 207 204 201
191 202 105 156 207 225 232 242 248 264 327 258 292 279 251 172 111 52 31 11 359 353 348 353 355 349 345 337 324 275 239 221 210 209 199 198 188 196 198 199 203 206 205 205
232 261 224 195 233 193 260 233 251 261 291 272 289 293 255 211 115 23 10 7 1 354 350 353 358 354 350 342 336 303 249 221 215 199 197 194 185 180 201 198 194 190 195 195
253 209 203 219 221 164 239 3 259 248 234 310 237 243 263 320 8 3 2 2 2 1 354 355 2 359 355 349 341 333 264 220 207 203 198 186 188 189 192 192 181 180 183 187
245 48 61 236 276 231 312 299 290 64 179 248 231 211 273 26 22 359 3 2 360 3 4 3 2 7 4 355 351 353 334 214 206 205 196 191 187 180 169 173 175 177 180 182
303 213 292 323 269 154 170 140 271 245 213 254 122 202 263 122 83 32 0 357 355 1 5 6 7 358 5 355 350 348 351 191 203 202 202 197 195 187 180 175 177 177 180 183
212 274 177 118 237 202 213 203 191 225 242 299 313 243 174 135 88 42 16 1 1 2 359 5 11 356 358 356 346 346 350 345 229 207 209 204 190 171 157 166 181 183 186 185
183 263 214 15 60 224 166 201 0 41 51 254 247 210 189 167 26 21 9 357 357 356 352 351 352 360 359 355 346 346 345 358 238 207 198 191 185 166 146 188 187 187 182 181
233 279 238 142 335 63 144 131 139 59 239 239 236 255 242 54 356 350 355 351 345 340 342 341 347 350 353 345 340 346 356 16 84 168 173 164 159 141 138 127 177 194 172 170
136 175 161 87 346 181 239 193 66 100 209 252 280 265 132 144 333 338 336 335 331 330 330 330 326 332 334 335 330 352 351 12 94 117 126 132 124 123 150 140 189 178 164 164
185 160 150 106 334 267 330 13 172 214 209 185 44 270 124 349 337 340 331 325 320 316 311 313 311 312 321 326 336 346 342 339 109 134 142 141 141 149 176 168 178 164 159 168
172 87 67 310 163 48 157 165 140 101 60 183 218 266 254 335 330 318 314 312 312 308 309 308 305 299 310 313 318 327 342 295 211 169 155 150 151 143 171 164 161 157 160 162
37 190 214 211 174 127 198 178 170 98 143 213 238 278 297 298 302 306 304 302 301 299 297 293 291 290 296 300 308 312 317 253 232 199 173 163 158 151 159 151 148 149 160 151
186 225 210 246 131 158 220 200 181 192 181 220 253 262 283 293 297 300 304 301 296 291 287 282 283 282 280 290 300 313 322 237 214 190 172 161 152 147 147 144 145 148 155 162
206 170 146 306 6 234 252 243 231 232 229 244 265 278 261 297 311 313 305 302 295 280 271 276 278 281 276 284 300 298 315 227 194 180 161 152 144 144 146 146 146 147 142 149
156 143 142 258 14 323 269 241 202 191 206 191 247 302 321 318 314 312 312 311 307 292 268 280 280 286 279 288 298 290 293 264 180 164 162 155 152 150 151 146 142 133 138 141
147 123 105 195 347 231 302 225 169 204 227 220 268 288 284 296 305 314 316 321 328 317 275 270 275 285 286 297 295 278 289 252 179 154 155 158 158 154 151 143 140 140 138 135
113 128 107 170 209 300 353 186 150 189 276 242 225 277 299 306 308 330 339 353 1 352 323 285 288 302 314 309 285 265 271 261 169 160 159 161 160 154 147 147 144 139 130 122
76 65 114 145 137 224 231 216 99 96 283 209 224 287 315 323 345 332 327 328 346 4 335 341 327 342 334 333 304 263 260 264 178 169 162 164 164 153 150 145 137 132 132 121
118 48 154 169 215 282 245 234 100 209 235 245 290 300 299 321 287 297 308 303 320 326 298 324 350 355 338 317 300 286 256 246 180 160 159 158 158 155 150 141 139 132 124 120
164 149 178 107 127 274 183 99 186 215 255 253 300 276 303 305 308 316 303 292 314 320 332 1 340 343 328 312 293 292 265 198 164 160 152 154 154 152 144 139 134 129 126 119
195 184 178 186 208 256 220 211 188 157 241 285 285 293 300 303 317 328 317 319 329 333 350 354 341 329 319 310 289 273 252 162 150 146 147 148 152 147 146 139 131 125 124 123
239 163 159 149 233 229 248 258 249 236 220 263 268 275 285 304 319 329 327 332 337 359 8 346 325 331 315 308 280 238 172 157 146 138 141 142 141 139 140 137 136 134 134 131
185 141 161 263 273 277 266 243 248 222 263 271 289 263 292 314 318 318 317 321 329 4 22 340 323 333 326 348 157 161 158 151 140 138 138 138 138 135 130 133 142 143 145 150
191 170 175 211 209 165 223 241 52 184 259 289 277 309 323 307 306 315 313 320 338 354 14 345 331 336 352 353 107 137 145 146 139 133 136 138 135 132 128 122 112 132 151 152